Aurora, CO

10:54 PM MDT on August 30, 2016 (GMT -0600)
Denver International

Weather History for KDEN - August, 2012

Change the Weather History Date:

Sunday, August 5, 2012

  Actual Average Record
Temperature  
Mean Temperature 78 °F 74 °F  
Max Temperature 97 °F 89 °F 99 °F (1877)
Min Temperature 58 °F 60 °F 48 °F (1978)
Degree Days  
Heating Degree Days 0 0  
Month to date heating degree days 0 0  
Since 1 June heating degree days 6 68  
Since 1 July heating degree days 0 6  
Cooling Degree Days 13 10  
Month to date cooling degree days 63 50  
Year to date cooling degree days 866 494  
Since 1 June cooling degree days 815 472  
Growing Degree Days 27 (Base 50)    
Moisture  
Dew Point 40 °F    
Average Humidity 33    
Maximum Humidity 57    
Minimum Humidity 9    
Precipitation  
Precipitation 0.00 in 0.08 in 0.71 in (1929)
Month to date precipitation T 0.37  
Year to date precipitation 5.29 10.04  
Snow  
Snow 0.00 in - - ()
Month to date snowfall 0  
Since 1 June snowfall 0  
Since 1 July snowfall 0  
Snow Depth 0.00 in    
Sea Level Pressure  
Sea Level Pressure 30.02 in    
Wind  
Wind Speed 11 mph (South)    
Max Wind Speed 23 mph    
Max Gust Speed 26 mph    
Visibility 10 miles    
Events      
T = Trace of Precipitation, MM = Missing Value Source: NWS Daily Summary

Daily Weather History Graph

Daily Weather History Graph

Search for Another Location

Airport or City:

Trip Planner

Search our weather history database for the weather conditions in past years. The results will help you decide how hot, cold, wet, or windy it might be!

Date:

Astronomy

Aug. 05, 2012 Rise Set
Actual Time 6:01 AM MDT 8:06 PM MDT
Civil Twilight 5:31 AM MDT 8:36 PM MDT
Nautical Twilight 4:55 AM MDT 9:12 PM MDT
Astronomical Twilight 4:15 AM MDT 9:52 PM MDT
Moon 9:47 PM MDT (8/5) 9:52 AM MDT (8/5)
Length of Visible Light 15h 04m
Length of Day
14h 05m
Waning Gibbous, 86% of the Moon is Illuminated
Aug 5
Waning Gibbous
Aug 9
Last Quarter
Aug 17
New
Aug 24
First Quarter
Aug 31
Full

Hourly Weather History & Observations

Time (MDT) Temp. Dew Point Humidity Pressure Visibility Wind Dir Wind Speed Gust Speed Precip Events Conditions
12:53 AM 64.0 °F 42.1 °F 45% 30.09 in 10.0 mi SSE 13.8 mph - N/A   Partly Cloudy
1:53 AM 63.0 °F 42.1 °F 46% 30.08 in 10.0 mi South 15.0 mph - N/A   Partly Cloudy
2:53 AM 62.1 °F 43.0 °F 50% 30.08 in 10.0 mi South 10.4 mph - N/A   Clear
3:53 AM 64.0 °F 43.0 °F 46% 30.06 in 10.0 mi SSW 11.5 mph - N/A   Clear
4:53 AM 63.0 °F 43.0 °F 48% 30.08 in 10.0 mi SSW 9.2 mph - N/A   Partly Cloudy
5:53 AM 57.9 °F 42.1 °F 56% 30.09 in 10.0 mi SSE 6.9 mph - N/A   Partly Cloudy
6:53 AM 64.0 °F 43.0 °F 46% 30.08 in 10.0 mi South 9.2 mph - N/A   Partly Cloudy
7:53 AM 69.1 °F 43.0 °F 39% 30.09 in 10.0 mi South 12.7 mph - N/A   Partly Cloudy
8:53 AM 73.0 °F 43.0 °F 34% 30.10 in 10.0 mi SSW 11.5 mph - N/A   Partly Cloudy
9:53 AM 77.0 °F 43.0 °F 30% 30.09 in 10.0 mi SSW 9.2 mph - N/A   Partly Cloudy
10:53 AM 82.0 °F 44.1 °F 26% 30.08 in 10.0 mi West 6.9 mph - N/A   Partly Cloudy
11:53 AM 84.0 °F 43.0 °F 24% 30.05 in 10.0 mi Variable 3.5 mph - N/A   Scattered Clouds
12:53 PM 91.0 °F 39.0 °F 16% 30.01 in 10.0 mi WSW 4.6 mph - N/A   Scattered Clouds
1:53 PM 93.0 °F 32.0 °F 12% 29.98 in 10.0 mi NE 8.1 mph - N/A   Scattered Clouds
2:53 PM 96.1 °F 28.0 °F 9% 29.96 in 10.0 mi NNE 9.2 mph - N/A   Scattered Clouds
3:53 PM 95.0 °F 28.0 °F 9% 29.93 in 10.0 mi North 9.2 mph - N/A   Scattered Clouds
4:53 PM 93.9 °F 26.1 °F 9% 29.92 in 10.0 mi Variable 4.6 mph - N/A   Scattered Clouds
5:53 PM 93.0 °F 37.0 °F 14% 29.94 in 10.0 mi SSE 16.1 mph 25.3 mph N/A   Mostly Cloudy
6:53 PM 88.0 °F 41.0 °F 19% 29.94 in 10.0 mi South 20.7 mph 26.5 mph N/A   Mostly Cloudy
7:53 PM 84.0 °F 37.9 °F 19% 29.95 in 10.0 mi South 15.0 mph - N/A   Mostly Cloudy
8:53 PM 78.1 °F 43.0 °F 29% 29.97 in 10.0 mi SSE 9.2 mph - N/A   Mostly Cloudy
9:53 PM 73.9 °F 43.0 °F 33% 29.97 in 10.0 mi SSE 10.4 mph - N/A   Mostly Cloudy
10:53 PM 77.0 °F 44.1 °F 31% 29.95 in 10.0 mi South 18.4 mph - N/A   Mostly Cloudy
11:53 PM 77.0 °F 44.1 °F 31% 29.94 in 10.0 mi South 18.4 mph - N/A   Mostly Cloudy